Location: North Mitre
(40.7833°S, 175.4667°E)
Time: 04:02:00
(UTC+00:00)

Cosmos 1844 - Pass Details

Date: 04 August 2024
Orbit: 823 x 865 km, 70.9° (Epoch: 07 September)

Event Time Altitude Azimuth Distance (km) Brightness Sun altitude
Exits shadow 17:03:19 49° 199° (SSW) 1,076 4.0 -26.2°
Drops below altitude 10° 17:07:49 10° 163° (SSE) 2,481 6.3 -25.3°
Sets 17:10:20 0° 159° (SSE) 3,429 7.1 -24.8°
